[[{"header":{"parameterUnit":"m.s-1","parameterCategory":1,"la1":30.2991,"la2":30.254,"lo1":-89.0895,"lo2":-89.0444,"dy":0.0017,"dx":0.0017,"nx":28,"ny":28,"refTime":"2024-05-29T21:00:00:Z","depth":0,"parameterNumber":2,"parameterNumberName":"U-component_of_WINDS"},"data":[0,0,0,0,0,0,0,0,0,0,0,0,0,0,0,0,0,0,0,0,0,0,0,0,0,0,0,0,0,0,0,0,0,0,0,0,0,0,0,0,0,0,0,0,0,0,0,0,0,0,0,0,0,0,0,0,0,0,-0.5652,-0.5652,0,-0.5605,-0.5604,-0.5604,-0.5549,-0.5548,-0.5547,-0.5546,-0.5497,-0.5497,-0.5496,0,0,0,0,0,0,0,0,0,0,0,0,0,-0.5695,-0.5695,-0.5652,-0.5652,-0.5651,-0.5605,-0.5604,-0.5604,-0.5549,-0.5548,-0.5547,-0.5546,-0.5497,-0.5497,-0.5496,0,0,0,0,0,0,0,0,0,0,0,0,0,-0.5665,-0.5694,-0.5652,-0.5618,-0.5615,-0.5605,-0.5604,-0.5603,-0.5549,-0.5548,-0.5547,-0.5545,-0.5498,-0.5497,-0.5496,-0.5516,0,0,-0.5494,-0.5493,0,0,0,0,0,0,0,0,-0.5667,-0.5664,-0.5624,-0.5621,-0.5617,-0.5581,-0.5601,-0.5574,-0.5549,-0.5574,-0.5546,-0.5545,-0.5526,-0.5523,-0.5517,-0.5514,-0.5512,-0.5494,-0.5493,-0.5493,-0.5493,0,0,0,0,0,0,0,-0.5669,-0.5665,-0.5633,-0.5623,-0.5619,-0.5605,-0.56,-0.5596,-0.5558,-0.5572,-0.5568,-0.5563,-0.5524,-0.5518,-0.5515,-0.5511,-0.5494,-0.5493,-0.5492,-0.5492,-0.5522,-0.5523,0,0,0,0,0,0,-0.5676,-0.5667,-0.5635,-0.5632,-0.5639,-0.5605,-0.5599,-0.5594,-0.5558,-0.5551,-0.5564,-0.556,-0.552,-0.5516,-0.5513,-0.5534,-0.5493,-0.5492,-0.5492,-0.5521,-0.5522,-0.5523,0,0,0,0,0,0,-0.5677,-0.5674,-0.5637,-0.5649,-0.5643,-0.5606,-0.5601,-0.5594,-0.5587,-0.5552,-0.5544,-0.5565,-0.5519,-0.5514,-0.5516,-0.5532,-0.5492,-0.5491,-0.5519,-0.5521,-0.5523,-0.5576,0,0,0,0,0,0,-0.5679,-0.5675,-0.5682,-0.5649,-0.5642,-0.564,-0.5602,-0.5594,-0.5586,-0.5581,-0.555,-0.5544,-0.5517,-0.5517,-0.5515,-0.553,-0.549,-0.5517,-0.552,-0.5522,-0.5573,-0.558,-0.5586,0,0,0,0,0,-0.5681,-0.5699,-0.5683,-0.5679,-0.5651,-0.5641,-0.5638,-0.5607,-0.5588,-0.5595,-0.5572,-0.5545,-0.5531,-0.5518,-0.5515,-0.553,-0.5516,-0.5519,-0.5522,-0.557,-0.5578,-0.5586,0,0,0,0,0,0,-0.5734,-0.5694,-0.5675,-0.5684,-0.5666,-0.5632,-0.564,-0.5616,-0.5604,-0.56,-0.5562,-0.5555,-0.5561,-0.5545,-0.5532,-0.5547,-0.5519,-0.5522,-0.5557,-0.5565,-0.5571,-0.5575,-0.549,0,0,0,0,0,-0.5747,-0.5743,-0.5708,-0.5718,-0.5711,-0.5677,-0.5672,-0.565,-0.563,-0.5622,-0.56,-0.5582,-0.5573,-0.5568,-0.5558,-0.5571,-0.5563,-0.5579,-0.5586,-0.5591,-0.5594,-0.5599,-0.5606,-0.5533,-0.5533,-0.5533,0,0,-0.5774,-0.5751,-0.5751,-0.5729,-0.5713,-0.5709,-0.5671,-0.5669,-0.5666,-0.5622,-0.5622,-0.5605,-0.5582,-0.5589,-0.5591,-0.5576,-0.5612,-0.5595,-0.5599,-0.5599,-0.5603,-0.561,-0.5616,-0.5535,-0.5534,-0.5534,0,0,-0.582,-0.5802,-0.5809,-0.5794,-0.577,-0.5748,-0.575,-0.5719,-0.5706,-0.5705,-0.5672,-0.5668,-0.5654,-0.5639,-0.563,-0.5671,-0.5646,-0.5669,-0.5702,-0.5708,-0.5713,-0.5718,-0.5733,-0.5739,-0.5671,-0.5671,-0.5671,0,-0.5856,-0.5849,-0.5816,-0.5816,-0.5807,-0.5767,-0.5774,-0.5761,-0.5735,-0.573,-0.5714,-0.5695,-0.5677,-0.568,-0.5691,-0.5684,-0.5685,-0.5672,-0.5715,-0.572,-0.5724,-0.5737,-0.5743,-0.5674,-0.5674,-0.5674,-0.5673,0,-0.5894,-0.589,-0.5899,-0.5875,-0.5867,-0.5871,-0.5838,-0.5834,-0.5813,-0.5792,-0.5792,-0.5769,-0.5753,-0.5752,-0.5731,-0.5753,-0.5744,-0.5722,-0.5694,-0.5734,-0.5746,-0.5751,-0.5679,-0.5677,-0.5677,-0.5676,0,0,-0.5973,-0.5931,-0.5935,-0.5923,-0.5894,-0.5891,-0.5892,-0.5877,-0.5875,-0.5859,-0.5859,-0.5848,-0.5828,-0.5817,-0.5794,-0.5799,-0.5833,-0.5776,-0.5775,-0.5788,-0.5855,-0.5872,-0.5878,-0.5816,-0.5817,-0.5818,-0.5857,0,-0.6014,-0.6014,-0.5984,-0.5993,-0.5989,-0.5951,-0.5952,-0.5935,-0.5916,-0.5909,-0.5888,-0.5881,-0.5854,-0.5848,-0.5851,-0.5828,-0.5846,-0.5825,-0.5816,-0.5816,-0.5823,-0.5884,-0.5902,-0.594,-0.5861,-0.5862,-0.5863,0,-0.6062,-0.6048,-0.6057,-0.6027,-0.6025,-0.6026,-0.601,-0.6005,-0.5984,-0.597,-0.5958,-0.5932,-0.5931,-0.5905,-0.5903,-0.589,-0.5884,-0.5873,-0.5873,-0.5871,-0.5842,-0.5884,-0.5951,-0.5957,-0.587,-0.5869,-0.5869,0,-0.6118,-0.6102,-0.6105,-0.6097,-0.6063,-0.6065,-0.6051,-0.6029,-0.6022,-0.6008,-0.6003,-0.5989,-0.5982,-0.5972,-0.5942,-0.5925,-0.5944,-0.5915,-0.5932,-0.5933,-0.5938,-0.5938,-0.6005,-0.5935,-0.5935,-0.5934,-0.5934,0,-0.6167,-0.6174,-0.613,-0.6132,-0.6138,-0.6104,-0.6111,-0.6093,-0.6074,-0.6072,-0.6038,-0.6036,-0.5998,-0.5992,-0.5969,-0.5971,-0.5968,-0.5956,-0.595,-0.5959,-0.5961,-0.5955,-0.5952,-0.5936,-0.5936,-0.5935,-0.5935,0,-0.6232,-0.6203,-0.6203,-0.6171,-0.6163,-0.6169,-0.6141,-0.6142,-0.612,-0.6118,-0.6115,-0.6082,-0.6073,-0.6043,-0.6026,-0.6011,-0.6021,-0.6009,-0.6028,-0.6024,-0.6043,-0.6041,-0.6109,-0.6116,-0.6041,-0.6042,-0.6042,0,-0.6265,-0.6269,-0.6237,-0.6233,-0.6221,-0.6215,-0.6207,-0.6174,-0.6167,-0.6144,-0.6147,-0.6136,-0.6125,-0.6113,-0.6087,-0.6075,-0.6062,-0.6087,-0.606,-0.6069,-0.6062,-0.6063,-0.6063,-0.6092,-0.6093,-0.6094,-0.6095,0,-0.6327,-0.6312,-0.6303,-0.6289,-0.6281,-0.6269,-0.6254,-0.6253,-0.6215,-0.621,-0.62,-0.6192,-0.6176,-0.6165,-0.6148,-0.6133,-0.6108,-0.6103,-0.6107,-0.6116,-0.6127,-0.6121,-0.6043,-0.6102,-0.6101,-0.6101,-0.61,-0.61,-0.6377,-0.6379,-0.6357,-0.6347,-0.6333,-0.632,-0.6318,-0.6297,-0.6289,-0.6273,-0.6253,-0.6246,-0.6225,-0.62,-0.6188,-0.6182,-0.6168,-0.6173,-0.6174,-0.6175,-0.618,-0.6128,-0.6178,-0.6178,-0.6178,-0.6178,-0.6178,0,-0.6437,-0.6421,-0.6413,-0.6393,-0.6386,-0.6363,-0.6345,-0.6341,-0.6335,-0.6318,-0.6308,-0.6297,-0.6287,-0.626,-0.6247,-0.6247,-0.6235,-0.6245,-0.6244,-0.6242,-0.6193,-0.6192,-0.6255,-0.6255,-0.6255,-0.6255,-0.6255,-0.6255,-0.6468,-0.647,-0.6453,-0.6447,-0.6431,-0.6424,-0.6416,-0.6404,-0.6389,-0.6379,-0.637,-0.6353,-0.6332,-0.6316,-0.6306,-0.6298,-0.6295,-0.6308,-0.6297,-0.6252,-0.6245,-0.6238,-0.6236,-0.6308,-0.6308,-0.6346,-0.6346,-0.6346]},{"header":{"parameterUnit":"m.s-1","parameterCategory":1,"la1":30.2991,"la2":30.254,"lo1":-89.0895,"lo2":-89.0444,"dy":0.0017,"dx":0.0017,"nx":28,"ny":28,"refTime":"2024-05-29T21:00:00:Z","depth":0,"parameterNumber":3,"parameterNumberName":"V-component_of_WINDS"},"data":[0,0,0,0,0,0,0,0,0,0,0,0,0,0,0,0,0,0,0,0,0,0,0,0,0,0,0,0,0,0,0,0,0,0,0,0,0,0,0,0,0,0,0,0,0,0,0,0,0,0,0,0,0,0,0,0,0,0,1.1146,1.1146,0,1.1162,1.1162,1.1162,1.1148,1.1148,1.1147,1.1147,1.1161,1.1162,1.1163,0,0,0,0,0,0,0,0,0,0,0,0,0,1.1104,1.1104,1.1146,1.1146,1.1147,1.1162,1.1162,1.1162,1.1148,1.1148,1.1147,1.1146,1.116,1.1162,1.1163,0,0,0,0,0,0,0,0,0,0,0,0,0,1.1121,1.1105,1.1146,1.1142,1.1141,1.1162,1.1162,1.1162,1.1148,1.1148,1.1147,1.1146,1.116,1.1161,1.1163,1.1188,0,0,1.1167,1.1167,0,0,0,0,0,0,0,0,1.112,1.1122,1.1142,1.1142,1.1142,1.1152,1.1152,1.1171,1.1149,1.1146,1.1147,1.1146,1.1158,1.116,1.1165,1.1188,1.1189,1.1167,1.1168,1.1168,1.1169,0,0,0,0,0,0,0,1.1119,1.1122,1.1152,1.1142,1.1142,1.1138,1.114,1.1155,1.1157,1.1146,1.1145,1.1147,1.1158,1.1163,1.1165,1.1189,1.1167,1.1168,1.1169,1.1169,1.1235,1.1236,0,0,0,0,0,0,1.1118,1.1121,1.1152,1.1153,1.1129,1.114,1.1141,1.115,1.1156,1.1157,1.1148,1.1146,1.1161,1.1163,1.1165,1.1195,1.1168,1.117,1.117,1.1234,1.1235,1.1236,0,0,0,0,0,0,1.1117,1.1121,1.1151,1.1136,1.114,1.1141,1.1151,1.115,1.1155,1.1158,1.1158,1.1153,1.1161,1.1163,1.1182,1.1196,1.117,1.1171,1.1233,1.1234,1.1236,1.1256,0,0,0,0,0,0,1.1116,1.1121,1.1131,1.1137,1.1141,1.1169,1.1151,1.1151,1.1158,1.1156,1.1163,1.1163,1.116,1.1181,1.1184,1.1197,1.1173,1.1232,1.1233,1.1235,1.1254,1.1258,1.1261,0,0,0,0,0,1.1115,1.1135,1.1131,1.1135,1.1153,1.1169,1.1172,1.1169,1.1159,1.1169,1.117,1.1163,1.1194,1.1183,1.1186,1.12,1.1231,1.1233,1.1235,1.1252,1.1257,1.1261,0,0,0,0,0,0,1.113,1.1136,1.1132,1.1155,1.1162,1.1167,1.1179,1.1174,1.1183,1.1181,1.1177,1.1178,1.1199,1.1201,1.1189,1.1225,1.1211,1.1213,1.1223,1.1227,1.123,1.123,1.1174,0,0,0,0,0,1.1136,1.1149,1.1154,1.1174,1.1178,1.1178,1.1185,1.1182,1.1189,1.1192,1.1194,1.1201,1.1212,1.122,1.123,1.1254,1.1255,1.1265,1.1269,1.1272,1.1274,1.1288,1.1292,1.1243,1.1243,1.1243,0,0,1.1149,1.1154,1.1162,1.1177,1.1182,1.1195,1.118,1.1195,1.1205,1.1194,1.1212,1.1214,1.1221,1.1243,1.1253,1.1246,1.1288,1.1274,1.1277,1.1278,1.129,1.1295,1.1299,1.1244,1.1244,1.1244,0,0,1.1179,1.1184,1.1202,1.1208,1.1216,1.1216,1.122,1.1226,1.1227,1.1246,1.1238,1.1249,1.1269,1.1274,1.1279,1.1312,1.1305,1.1315,1.1334,1.1347,1.1351,1.1354,1.1366,1.137,1.1318,1.1318,1.1318,0,1.1194,1.1215,1.1212,1.1227,1.1234,1.1225,1.1243,1.1248,1.1259,1.1263,1.1255,1.128,1.1284,1.1307,1.1315,1.1319,1.1324,1.1315,1.135,1.1354,1.1357,1.1368,1.1373,1.1319,1.1319,1.1319,1.1319,0,1.1233,1.1247,1.126,1.1271,1.1279,1.1296,1.1295,1.1304,1.13,1.1301,1.132,1.1325,1.1336,1.1341,1.1338,1.1364,1.136,1.1351,1.1337,1.1363,1.1374,1.1378,1.1321,1.132,1.132,1.132,0,0,1.1273,1.1283,1.1288,1.1293,1.1302,1.1312,1.1328,1.134,1.1348,1.1355,1.1368,1.1385,1.1378,1.1383,1.138,1.1392,1.1418,1.1382,1.1382,1.1389,1.1448,1.1455,1.146,1.1413,1.1414,1.1415,1.1447,0,1.1304,1.1333,1.1331,1.1358,1.1371,1.1362,1.1376,1.1383,1.1384,1.1395,1.1396,1.1408,1.1397,1.14,1.1411,1.1413,1.143,1.141,1.1426,1.1426,1.1425,1.1465,1.1473,1.1503,1.1451,1.1452,1.1453,0,1.1345,1.1355,1.1383,1.139,1.1395,1.1408,1.1418,1.1429,1.1436,1.1436,1.1443,1.1438,1.1454,1.1439,1.1461,1.1447,1.1453,1.1455,1.1456,1.1458,1.1442,1.1469,1.1513,1.1517,1.1459,1.1459,1.1458,0,1.1372,1.1392,1.1412,1.1417,1.1425,1.1434,1.1438,1.1444,1.1451,1.146,1.1465,1.1476,1.1482,1.149,1.1488,1.1477,1.151,1.1495,1.1511,1.1511,1.1519,1.1518,1.1565,1.1522,1.1522,1.1521,1.1521,0,1.1407,1.1425,1.1425,1.1437,1.1457,1.1454,1.1473,1.1475,1.1481,1.1493,1.1486,1.1498,1.1494,1.1506,1.1504,1.1523,1.1525,1.1526,1.1525,1.1527,1.1527,1.1531,1.1529,1.1523,1.1522,1.1522,1.1522,0,1.1442,1.1442,1.1463,1.1469,1.1471,1.1486,1.1491,1.1502,1.1502,1.1518,1.1522,1.1522,1.1536,1.1534,1.1549,1.1548,1.1571,1.1567,1.1569,1.1568,1.1584,1.1583,1.1636,1.1643,1.1595,1.1595,1.1595,0,1.1465,1.1478,1.1486,1.1494,1.1499,1.1512,1.1519,1.1517,1.1525,1.1534,1.1544,1.1557,1.1567,1.1588,1.1589,1.16,1.1598,1.1615,1.1599,1.1601,1.1599,1.1598,1.16,1.1619,1.1619,1.162,1.162,0,1.1505,1.1505,1.1517,1.1528,1.1538,1.1547,1.1555,1.1562,1.156,1.1569,1.1583,1.1591,1.1606,1.1618,1.1629,1.1632,1.1626,1.1625,1.1629,1.1631,1.1632,1.1632,1.1578,1.1624,1.1623,1.1623,1.1623,1.1623,1.1535,1.1547,1.1555,1.1568,1.1574,1.1582,1.1593,1.1595,1.1606,1.1619,1.1616,1.1632,1.1638,1.1652,1.1656,1.1668,1.1662,1.1668,1.167,1.1671,1.1674,1.163,1.167,1.167,1.167,1.167,1.1669,0,1.1576,1.1581,1.1593,1.1605,1.1615,1.1609,1.1617,1.1626,1.164,1.1647,1.1657,1.1673,1.1685,1.1688,1.1699,1.1708,1.1706,1.1711,1.1711,1.1712,1.1678,1.1674,1.1713,1.1713,1.1713,1.1713,1.1713,1.1713,1.1599,1.1619,1.1619,1.1642,1.1646,1.1662,1.1667,1.1674,1.168,1.1698,1.1708,1.171,1.1715,1.1727,1.1738,1.1739,1.1744,1.1751,1.175,1.1719,1.1714,1.171,1.1706,1.1751,1.1752,1.1783,1.1783,1.1783]}]]